2018-046H

Last updated on Mon Aug 13 2018 00:15:07 GMT+0000 (Coordinated Universal Time)

1 43561U 18046H 18224.61799203 .00001126 00000-0 53796-4 0 9996 2 43561 51.6439 102.8596 0009706 61.8281 298.3692 15.27763867 3697

Satellite not in orbit

2018-046H